Wind_Speed
44 45 46 47 47 48 49 49 50 50 50 51 52 52 52 52 53 54 54 53 53 53 53 53 53 53 53 52 51 51 51 51 51 51 51 50 50 50
46 47 48 48 49 50 51 51 52 52 52 52 52 52 52 53 53 53 53 53 53 53 54 54 54 53 53 52 52 51 50 50 50 50 50 50 50 50
47 48 49 49 50 51 52 52 53 53 53 52 53 53 53 53 53 54 54 54 54 54 54 54 53 53 53 52 51 51 51 51 50 49 48 48 48 49
48 48 49 50 50 51 52 52 53 53 53 52 52 52 52 53 53 53 53 53 53 53 53 54 53 52 52 52 52 51 51 50 49 48 48 48 48 49
49 49 49 49 50 50 51 51 52 52 52 52 51 51 51 51 51 51 51 52 52 52 53 52 51 51 51 51 51 51 50 49 49 49 49 49 49 50
49 49 49 49 50 50 50 51 51 51 51 51 51 51 51 51 51 50 51 51 51 51 50 50 49 50 50 50 49 49 49 48 48 48 48 49 49 49
48 49 49 50 51 50 50 50 51 51 51 51 51 51 51 51 50 50 50 50 50 49 49 49 48 49 48 48 48 48 48 48 48 48 48 48 49 49
47 48 49 50 50 50 50 51 50 50 51 51 51 51 51 51 50 49 49 48 48 48 48 48 48 48 48 47 47 47 47 47 48 48 49 49 50 50
47 48 49 49 49 50 50 50 50 50 51 51 50 51 50 50 50 49 48 47 47 47 46 46 47 46 47 47 46 46 47 47 47 48 49 50 50 50
48 48 49 49 49 49 50 50 50 50 51 51 51 51 50 50 49 48 48 47 47 47 46 46 46 46 46 47 47 47 47 47 47 48 48 49 49 49
49 49 50 50 50 51 51 50 50 50 51 51 51 50 50 49 48 48 47 46 46 46 46 46 46 45 45 46 47 47 47 47 47 46 46 46 46 46
50 50 50 51 51 51 51 51 51 51 51 50 50 49 49 48 47 46 46 46 46 45 46 46 46 45 44 44 46 46 45 44 44 44 44 44 44 44
51 51 51 51 51 51 51 51 51 51 50 50 49 48 47 47 46 46 46 46 46 45 45 45 45 44 44 42 43 44 43 42 42 42 43 43 44 44
50 51 51 51 51 51 51 51 51 50 49 48 47 46 46 45 45 45 45 45 45 45 45 44 44 43 42 42 42 42 42 42 41 41 42 42 43 42
51 51 51 51 51 51 51 50 50 49 48 47 47 46 45 45 45 45 45 45 45 44 44 44 42 41 41 41 41 41 40 40 40 40 40 41 41 40
51 51 51 51 50 50 49 49 48 48 47 47 46 45 45 44 43 43 43 43 43 43 42 42 42 41 40 40 40 40 39 39 39 39 39 39 39 38
50 50 49 49 49 48 48 47 47 46 46 45 44 44 43 42 42 42 42 42 41 41 41 41 40 39 39 38 38 38 38 38 38 37 37 36 36 37
50 49 49 48 48 47 46 46 45 44 44 44 43 42 42 41 40 40 40 40 39 39 39 38 38 37 37 36 36 36 36 35 35 35 34 34 34 35
48 48 48 47 46 46 45 44 43 43 43 42 42 41 40 40 39 39 38 38 38 37 37 36 35 34 34 34 34 35 34 33 33 32 32 32 31 32
47 47 46 45 45 44 43 43 42 41 41 40 39 38 38 37 37 37 36 36 36 36 35 34 33 32 32 32 32 32 32 31 30 30 30 30 30 30
45 45 44 44 43 43 42 42 41 40 39 38 37 37 36 35 35 34 34 34 34 34 33 32 32 32 31 31 30 30 30 29 29 28 28 28 27 27
43 43 43 42 42 41 41 40 39 38 37 36 35 35 34 34 33 33 32 32 31 31 30 30 30 30 30 29 29 28 27 27 27 28 28 27 26 25
43 42 41 41 40 39 39 38 37 35 35 34 33 32 32 31 30 30 30 30 29 29 29 28 28 29 28 28 27 25 25 25 25 26 26 26 25 25
Wind_Direction
283 284 285 285 285 286 286 286 286 285 285 285 285 285 285 284 285 285 285 285 285 285 285 285 285 285 285 285 283 282 280 279 278 277 276 274 273 272
284 284 285 285 286 286 287 287 287 287 286 286 286 286 285 285 285 286 285 285 285 285 286 286 286 286 285 284 283 282 281 281 279 278 276 274 273 273
285 285 285 286 286 286 287 287 287 288 288 287 287 287 286 286 286 286 286 286 286 286 286 286 286 285 284 283 283 282 281 281 280 279 277 275 274 274
285 287 287 287 286 286 287 287 287 288 288 288 288 288 287 287 287 287 287 286 287 287 287 287 286 285 284 284 283 282 282 281 279 278 277 276 276 275
286 287 288 288 287 288 288 289 289 289 289 288 289 288 289 289 288 288 287 287 287 287 287 287 286 285 285 284 283 282 281 280 278 277 276 276 276 276
287 288 288 288 288 288 289 289 289 289 289 289 289 289 290 289 289 289 289 289 289 289 288 287 286 286 285 284 283 281 280 279 278 277 277 277 277 277
288 288 288 289 289 289 289 289 289 289 289 289 289 289 290 289 289 289 289 289 289 289 288 288 287 286 286 285 284 282 281 280 278 277 277 278 279 278
288 289 289 289 289 290 290 289 290 290 290 289 289 290 290 289 289 289 289 289 288 288 288 287 287 286 286 285 284 283 282 281 279 279 278 279 279 279
289 289 289 289 290 290 290 290 290 291 290 290 290 290 289 289 289 288 288 288 288 288 288 288 287 287 286 285 284 283 283 282 281 280 280 280 279 279
289 289 289 289 289 289 290 290 291 291 291 290 290 289 289 289 288 288 288 288 287 287 287 287 287 287 287 286 285 285 285 284 283 282 281 281 280 280
289 289 289 289 289 289 289 289 290 290 290 290 290 289 288 288 288 288 289 289 288 288 288 288 287 287 287 287 287 286 286 285 284 283 282 282 281 281
288 288 288 288 288 289 289 288 289 289 289 290 290 289 288 287 287 287 288 288 289 289 289 288 288 288 287 287 288 287 287 286 285 285 284 283 283 282
288 288 288 288 288 288 289 288 289 289 289 289 290 289 288 287 286 286 287 288 289 290 289 289 289 288 288 288 287 287 287 286 286 285 285 284 284 283
288 288 288 287 287 288 288 289 289 289 289 289 290 289 288 287 286 286 288 289 289 290 290 289 289 289 288 288 288 287 287 287 286 286 286 285 285 284
288 289 288 288 287 288 288 288 288 288 289 289 289 289 288 287 286 286 287 289 290 290 290 290 289 289 289 289 288 288 288 288 287 287 287 287 286 284
288 289 289 289 288 288 289 288 288 288 288 288 288 288 287 286 286 286 287 288 289 290 290 290 289 289 290 290 289 289 289 289 288 289 289 288 287 285
288 289 289 290 289 289 289 289 289 288 288 287 287 287 286 285 285 286 287 288 289 289 290 290 290 290 290 291 291 291 291 291 290 290 289 289 288 287
289 289 289 289 289 289 289 289 288 288 288 287 287 286 286 285 285 286 287 288 289 289 290 290 290 290 291 292 292 292 292 292 292 292 290 290 289 288
288 288 289 289 289 289 289 289 288 288 288 288 288 287 287 286 286 286 287 288 289 290 290 290 290 290 291 291 292 293 293 293 292 292 292 292 292 291
288 288 288 288 288 288 288 288 289 289 288 289 288 288 287 287 287 286 287 288 289 290 290 290 290 291 292 292 293 293 293 293 293 293 293 294 294 294
288 288 288 288 288 287 287 287 288 288 288 287 288 288 287 287 288 287 287 288 289 289 289 289 290 291 292 293 294 293 293 293 294 294 295 295 296 296
287 287 287 287 288 287 287 287 287 287 286 286 287 287 286 286 287 287 287 289 290 290 288 289 290 291 292 293 294 293 293 293 295 297 297 298 298 297
287 287 287 287 287 287 286 287 286 286 285 285 286 286 286 286 286 287 287 288 289 289 288 289 290 292 293 294 294 294 294 295 296 297 299 300 300 300
Height
5716 5714 5713 5711 5709 5706 5704 5702 5701 5699 5697 5693 5690 5687 5684 5681 5678 5676 5673 5670 5668 5665 5662 5659 5656 5653 5650 5648 5646 5644 5642 5640 5639 5637 5637 5636 5635 5635
5704 5703 5701 5699 5696 5694 5691 5689 5686 5685 5683 5680 5676 5673 5670 5667 5664 5662 5659 5656 5653 5651 5648 5645 5642 5639 5636 5633 5631 5629 5627 5625 5624 5622 5621 5621 5620 5620
5692 5690 5688 5686 5684 5681 5679 5676 5673 5670 5668 5666 5662 5659 5656 5653 5650 5647 5644 5641 5638 5636 5633 5630 5627 5624 5621 5619 5617 5614 5613 5611 5609 5607 5606 5606 5605 5605
5680 5678 5675 5673 5670 5668 5665 5662 5659 5656 5654 5651 5648 5644 5641 5638 5636 5633 5630 5627 5624 5621 5618 5615 5612 5609 5607 5604 5602 5600 5598 5596 5594 5593 5592 5591 5591 5590
5667 5665 5662 5660 5657 5654 5651 5648 5645 5642 5639 5637 5634 5630 5627 5624 5622 5618 5615 5612 5609 5606 5603 5600 5597 5595 5592 5589 5587 5585 5583 5581 5580 5579 5578 5577 5576 5575
5654 5652 5649 5646 5643 5640 5637 5634 5631 5628 5625 5622 5619 5616 5613 5610 5607 5604 5601 5598 5595 5592 5588 5586 5583 5580 5577 5575 5573 5570 5568 5567 5565 5564 5563 5562 5560 5559
5641 5638 5635 5632 5629 5626 5624 5621 5618 5615 5611 5608 5605 5603 5599 5596 5594 5590 5588 5584 5581 5578 5575 5571 5569 5566 5563 5560 5558 5556 5554 5552 5551 5549 5548 5547 5545 5544
5628 5625 5622 5619 5616 5613 5610 5607 5604 5601 5597 5594 5592 5589 5585 5582 5579 5576 5573 5571 5568 5565 5562 5558 5555 5552 5549 5546 5544 5542 5540 5538 5536 5535 5533 5532 5530 5528
5614 5612 5609 5605 5602 5599 5596 5593 5590 5586 5583 5581 5578 5574 5571 5569 5566 5563 5559 5556 5554 5551 5548 5545 5541 5539 5535 5532 5530 5528 5526 5524 5522 5520 5518 5516 5514 5512
5601 5598 5595 5592 5588 5585 5582 5579 5576 5572 5569 5566 5564 5560 5557 5554 5551 5548 5545 5543 5540 5536 5534 5532 5529 5526 5522 5519 5516 5514 5512 5510 5507 5505 5503 5501 5499 5497
5587 5584 5581 5578 5575 5572 5569 5566 5562 5559 5555 5552 5549 5545 5542 5539 5536 5534 5531 5529 5527 5523 5520 5518 5516 5513 5510 5506 5503 5500 5497 5495 5493 5490 5488 5486 5484 5482
5574 5570 5567 5564 5560 5557 5554 5551 5548 5545 5541 5538 5535 5531 5528 5525 5522 5520 5518 5515 5513 5511 5507 5505 5502 5499 5498 5494 5490 5486 5484 5481 5479 5476 5474 5472 5470 5468
5559 5556 5553 5549 5546 5543 5540 5537 5533 5530 5527 5524 5521 5518 5514 5511 5509 5506 5504 5502 5499 5497 5494 5491 5489 5485 5483 5482 5478 5474 5471 5468 5466 5463 5461 5458 5456 5454
5545 5542 5538 5535 5532 5528 5525 5522 5519 5516 5513 5510 5508 5504 5501 5499 5496 5494 5491 5488 5486 5483 5480 5478 5476 5473 5470 5468 5466 5462 5458 5455 5453 5451 5448 5445 5443 5440
5530 5527 5524 5520 5517 5514 5511 5507 5504 5501 5499 5497 5494 5491 5488 5486 5483 5481 5478 5476 5473 5470 5467 5465 5463 5460 5458 5455 5453 5450 5447 5444 5440 5438 5435 5433 5430 5428
5515 5512 5509 5506 5502 5499 5496 5493 5490 5487 5485 5483 5480 5478 5475 5473 5470 5468 5466 5463 5461 5458 5455 5452 5450 5447 5445 5442 5440 5437 5434 5432 5429 5426 5423 5420 5417 5415
5500 5498 5495 5491 5488 5485 5482 5479 5476 5473 5471 5469 5466 5464 5462 5460 5458 5455 5453 5451 5449 5447 5444 5441 5438 5435 5433 5430 5428 5425 5422 5420 5417 5414 5412 5409 5406 5403
5485 5483 5480 5477 5474 5471 5469 5466 5463 5460 5457 5455 5453 5451 5449 5448 5446 5443 5441 5439 5437 5435 5432 5429 5427 5425 5422 5419 5417 5414 5412 5409 5406 5403 5400 5398 5395 5392
5470 5468 5465 5463 5460 5457 5455 5452 5450 5447 5445 5443 5441 5439 5437 5435 5433 5431 5429 5427 5425 5423 5421 5418 5416 5414 5412 5410 5407 5403 5401 5398 5395 5393 5390 5387 5385 5382
5456 5453 5451 5449 5446 5444 5441 5439 5437 5435 5433 5430 5429 5427 5425 5424 5422 5420 5418 5416 5414 5412 5410 5408 5406 5404 5402 5400 5397 5394 5391 5388 5386 5383 5381 5378 5375 5372
5442 5440 5437 5435 5433 5430 5428 5426 5424 5422 5421 5419 5417 5415 5414 5412 5411 5409 5408 5406 5404 5402 5400 5398 5396 5394 5392 5389 5387 5385 5382 5379 5376 5374 5372 5369 5367 5364
5429 5427 5424 5422 5419 5417 5415 5414 5412 5410 5409 5407 5406 5404 5403 5401 5400 5399 5397 5396 5394 5392 5390 5389 5387 5385 5382 5380 5378 5376 5373 5371 5368 5365 5362 5360 5357 5355
5416 5413 5411 5409 5407 5405 5403 5402 5400 5399 5397 5396 5395 5394 5392 5391 5390 5389 5387 5386 5385 5383 5381 5380 5378 5376 5374 5372 5370 5367 5365 5363 5360 5358 5355 5351 5348 5346